Wind_Speed
28 28 28 28 27 27 28 29 29 30 30 31 31 31 31 31 31 31 32 32 32 32 33 33 33 34 34 35 35 35 35 35 35 34 34 33 33 33
28 28 28 28 27 29 30 30 30 31 31 30 30 31 31 31 32 32 32 31 32 33 33 34 34 34 35 35 36 36 36 36 35 35 33 33 33 33
26 27 27 28 28 30 29 29 30 30 30 30 30 30 31 32 32 32 32 32 33 34 34 34 34 35 35 36 36 36 36 35 34 33 32 33 33 32
25 26 26 26 27 28 29 29 29 28 29 30 29 29 30 30 30 30 30 31 32 33 33 33 33 33 35 35 34 33 32 31 30 30 30 31 31 31
23 24 25 25 25 26 27 27 27 27 27 28 29 29 28 28 28 28 27 27 28 29 30 30 31 32 32 31 30 28 28 28 28 28 29 30 30 31
22 22 22 23 23 24 25 25 25 26 26 26 26 27 26 26 26 26 25 24 25 25 25 26 26 26 26 26 25 25 25 26 26 27 28 29 29 30
20 20 21 21 22 22 22 23 24 24 23 23 22 22 23 23 22 23 23 23 22 21 21 21 21 21 21 22 23 23 23 23 24 25 26 27 28 28
17 18 19 20 20 20 20 20 20 20 20 19 19 18 18 19 19 19 19 20 20 18 18 17 16 16 17 18 19 19 20 21 22 24 24 25 26 26
13 15 16 16 16 16 16 17 17 16 16 15 15 15 15 15 16 17 16 15 15 14 14 13 14 15 15 16 16 17 18 20 21 22 23 23 23 23
11 12 12 13 13 13 13 13 14 14 14 14 14 13 13 14 14 14 12 11 11 10 10 10 12 12 13 13 14 15 16 17 18 19 19 20 20 20
7 9 9 10 10 10 10 11 12 12 13 12 12 11 10 10 10 9 9 8 8 7 7 8 9 10 11 11 12 13 13 14 14 15 16 16 17 17
4 6 7 8 7 7 8 8 8 9 10 11 10 9 8 8 7 7 7 6 6 6 6 7 7 8 9 10 10 10 10 11 12 13 13 14 14 14
3 5 7 7 7 6 7 6 6 7 7 7 7 7 6 6 6 5 5 5 5 5 5 5 6 6 7 7 7 7 8 10 11 12 12 12 12 13
5 7 7 7 6 6 5 5 5 6 6 6 6 5 5 5 4 4 4 4 4 3 3 3 4 5 5 5 6 6 7 9 10 11 11 11 12 13
7 8 8 7 6 5 5 4 4 5 5 5 5 5 4 4 3 4 4 3 3 2 2 3 3 4 4 5 6 6 7 8 9 10 11 12 12 12
10 9 9 8 8 7 6 6 5 5 5 4 5 4 3 3 3 3 3 2 1 1 1 1 2 3 4 5 6 7 7 8 9 10 10 11 11 12
12 11 10 9 9 8 7 7 6 5 5 5 4 4 3 3 3 2 2 2 1 1 1 1 2 3 4 5 5 6 7 8 9 9 10 11 11 12
13 12 11 10 10 9 8 7 7 6 5 5 4 4 4 3 3 3 2 2 1 1 1 1 2 3 4 5 5 6 7 8 9 9 10 11 12 13
14 13 12 11 10 9 9 8 7 6 5 5 5 5 4 4 3 3 3 2 1 1 1 2 2 3 4 4 5 6 7 8 9 10 10 11 12 13
14 14 13 12 11 10 10 9 9 8 7 6 6 5 5 5 4 3 3 2 2 2 2 2 2 3 4 5 6 6 7 8 9 10 10 11 12 12
13 12 11 11 10 9 9 9 8 8 7 7 6 6 5 4 4 3 2 2 1 1 1 2 3 4 4 5 6 7 7 8 9 10 10 11 12 13
11 10 10 9 9 9 8 8 7 7 6 6 5 4 4 3 3 2 1 1 1 2 2 3 4 4 5 6 6 7 8 8 9 10 11 11 12 13
10 9 9 8 8 7 7 6 6 6 5 5 4 3 3 2 1 1 1 2 2 3 3 4 5 6 6 6 7 7 8 8 9 10 11 12 13 14
Wind_Direction
247 250 249 249 249 248 248 247 246 249 251 253 254 256 258 258 259 260 261 264 265 267 268 268 269 269 271 273 273 273 273 275 277 278 279 280 281 283
244 246 246 246 249 251 250 248 249 251 253 255 255 256 259 261 260 262 262 263 265 267 267 268 269 271 272 273 272 272 272 274 275 277 277 279 280 281
240 241 241 244 246 247 246 247 250 251 253 254 255 257 260 261 261 261 263 265 265 266 267 268 270 271 271 270 272 274 274 274 274 275 277 278 280 281
239 240 241 244 245 246 244 246 249 252 254 254 256 259 260 262 264 264 265 265 266 266 266 268 270 271 271 270 270 271 272 273 273 276 278 280 281 283
243 243 244 246 247 247 247 248 251 253 256 256 258 260 261 263 265 265 267 267 267 267 267 268 269 270 269 268 268 269 271 273 275 278 281 282 283 285
246 246 247 247 248 250 250 250 251 254 256 257 259 260 260 262 263 263 264 265 267 269 267 268 269 268 267 268 269 272 274 276 279 281 282 284 285 286
247 248 248 250 252 251 251 252 252 254 255 257 259 262 260 259 259 261 261 262 263 264 267 269 270 271 272 273 273 274 278 280 282 284 286 288 288 289
248 248 249 251 251 249 251 252 251 252 254 256 257 258 257 256 256 256 259 259 260 262 266 268 269 269 271 273 276 280 283 285 287 289 290 291 291 290
247 247 249 249 247 246 247 246 245 247 250 250 250 251 251 252 252 252 251 251 255 261 263 266 269 271 276 279 282 285 287 288 290 292 293 294 294 295
242 240 238 237 238 240 241 239 238 239 243 245 245 243 241 244 249 251 249 247 250 254 260 269 275 280 284 287 289 292 294 296 298 299 299 300 300 301
232 228 225 223 224 228 229 230 231 231 233 234 234 233 232 235 236 239 237 238 245 255 264 276 286 290 294 296 296 297 300 305 307 309 310 308 308 310
215 205 197 197 202 203 208 213 214 216 217 219 223 222 220 219 222 226 226 233 246 256 268 282 294 301 302 303 305 309 312 316 320 322 322 321 320 321
163 170 171 168 176 185 195 201 196 196 200 205 208 211 210 212 217 217 223 233 241 259 272 291 307 315 317 316 316 321 327 330 329 329 329 329 328 328
119 136 143 147 161 172 175 179 181 186 187 191 195 197 200 208 216 214 217 226 243 263 290 315 324 331 336 336 333 335 338 337 337 337 339 339 338 337
104 116 126 129 132 136 140 145 152 163 170 178 186 187 185 187 197 202 206 222 237 265 299 325 345 352 351 346 343 340 340 342 343 343 343 345 348 351
95 100 106 111 112 116 119 127 134 140 149 155 161 169 173 174 179 186 200 219 233 273 308 331 350 353 352 353 354 353 352 352 354 352 352 353 356 356
89 92 96 100 101 107 112 118 124 129 132 138 145 152 157 160 160 165 182 190 206 254 308 331 346 349 347 347 348 348 349 350 352 354 357 357 357 356
82 86 89 94 97 98 100 106 112 114 118 125 130 135 137 138 138 141 146 147 166 209 302 333 340 345 351 352 351 351 352 354 357 1 2 0 358 357
75 79 84 89 92 92 93 97 100 102 107 114 119 124 128 130 130 131 134 128 106 79 51 27 13 2 358 358 357 356 356 358 0 2 2 359 357 355
72 74 78 82 85 86 87 88 90 92 97 102 107 112 116 118 119 118 116 104 83 63 48 36 19 8 1 359 0 359 358 358 359 358 357 356 355 355
68 71 74 76 78 79 80 82 84 86 90 96 102 104 106 110 113 110 101 81 56 31 10 359 351 349 349 351 352 353 352 351 352 352 352 352 353 353
64 68 71 73 73 74 77 79 80 82 83 87 93 97 101 107 109 105 75 22 357 347 341 338 336 337 338 338 339 341 342 341 342 343 344 345 346 347
59 61 62 62 64 67 71 72 72 73 75 78 82 85 89 90 79 36 349 337 337 335 332 329 328 328 328 328 329 330 331 333 334 336 336 338 340 342
Height
5812 5815 5818 5821 5823 5826 5829 5832 5835 5838 5841 5843 5845 5847 5848 5850 5851 5853 5854 5855 5855 5856 5857 5857 5857 5858 5858 5858 5858 5858 5857 5857 5857 5856 5855 5854 5853 5852
5804 5807 5810 5813 5816 5819 5821 5824 5827 5830 5833 5835 5837 5839 5840 5842 5843 5845 5846 5847 5847 5848 5849 5849 5850 5850 5850 5850 5850 5850 5849 5849 5849 5848 5847 5846 5845 5844
5796 5799 5803 5806 5808 5811 5814 5816 5819 5822 5824 5827 5829 5830 5832 5834 5835 5836 5838 5839 5839 5840 5840 5841 5842 5842 5842 5842 5842 5842 5842 5841 5841 5840 5839 5838 5837 5836
5789 5792 5795 5798 5801 5803 5806 5809 5811 5814 5817 5819 5821 5823 5824 5826 5828 5829 5830 5830 5831 5832 5832 5833 5833 5834 5834 5834 5834 5834 5833 5833 5833 5832 5831 5831 5829 5828
5783 5785 5788 5791 5794 5796 5799 5801 5804 5807 5809 5812 5813 5815 5817 5818 5820 5821 5822 5823 5823 5824 5824 5824 5825 5825 5825 5826 5826 5826 5826 5826 5825 5825 5824 5823 5821 5820
5777 5779 5782 5784 5787 5790 5792 5795 5798 5800 5802 5804 5806 5808 5810 5811 5812 5814 5815 5816 5816 5816 5817 5818 5818 5818 5818 5818 5819 5819 5819 5819 5818 5818 5816 5815 5813 5812
5771 5774 5776 5778 5781 5783 5786 5788 5791 5793 5795 5797 5799 5801 5802 5804 5806 5807 5809 5809 5810 5811 5811 5812 5812 5812 5812 5812 5812 5812 5812 5812 5811 5810 5809 5807 5805 5803
5766 5768 5770 5773 5775 5777 5780 5782 5785 5787 5789 5791 5793 5795 5796 5798 5800 5801 5803 5804 5804 5805 5806 5806 5806 5807 5807 5807 5807 5807 5806 5806 5805 5803 5802 5800 5798 5795
5762 5764 5766 5768 5770 5773 5775 5777 5780 5782 5785 5787 5789 5790 5792 5793 5795 5796 5797 5798 5799 5800 5801 5801 5801 5802 5802 5802 5802 5801 5801 5800 5798 5796 5795 5793 5790 5788
5758 5760 5762 5764 5766 5769 5771 5773 5776 5778 5780 5783 5785 5786 5788 5789 5791 5793 5794 5794 5795 5796 5797 5797 5797 5797 5797 5797 5797 5796 5795 5794 5792 5790 5788 5786 5784 5781
5755 5757 5759 5761 5763 5766 5768 5770 5772 5775 5777 5779 5781 5783 5784 5786 5788 5789 5790 5791 5792 5793 5794 5794 5794 5794 5794 5793 5792 5792 5791 5789 5787 5785 5783 5781 5779 5776
5754 5755 5758 5760 5762 5764 5766 5768 5770 5773 5775 5777 5779 5780 5782 5783 5785 5786 5788 5789 5790 5791 5792 5792 5792 5791 5791 5790 5789 5788 5787 5785 5784 5782 5780 5777 5775 5773
5753 5755 5757 5759 5762 5764 5765 5767 5769 5771 5773 5775 5777 5778 5780 5781 5783 5784 5786 5787 5788 5789 5790 5790 5790 5789 5788 5787 5786 5785 5784 5783 5781 5780 5777 5775 5773 5771
5753 5755 5757 5759 5762 5764 5765 5767 5769 5770 5772 5774 5776 5777 5779 5780 5782 5783 5784 5786 5787 5788 5788 5788 5788 5787 5787 5786 5785 5784 5783 5781 5780 5778 5776 5774 5771 5769
5755 5757 5759 5761 5762 5764 5766 5767 5769 5770 5772 5774 5775 5777 5778 5779 5781 5782 5783 5784 5785 5786 5787 5787 5787 5786 5786 5785 5784 5783 5782 5780 5779 5777 5775 5773 5770 5768
5758 5760 5761 5762 5764 5766 5767 5768 5770 5771 5772 5774 5776 5777 5778 5779 5780 5781 5783 5784 5785 5785 5785 5786 5786 5786 5785 5784 5784 5782 5781 5780 5778 5776 5774 5772 5769 5767
5762 5763 5764 5765 5766 5767 5769 5770 5771 5773 5774 5775 5776 5777 5778 5779 5780 5781 5782 5783 5784 5785 5785 5785 5785 5785 5784 5784 5783 5782 5780 5779 5777 5775 5773 5771 5769 5766
5767 5767 5768 5768 5769 5770 5771 5772 5773 5774 5775 5776 5777 5778 5779 5780 5781 5782 5783 5783 5784 5784 5785 5785 5785 5784 5784 5783 5782 5781 5780 5778 5776 5774 5773 5771 5768 5766
5772 5772 5772 5772 5773 5773 5774 5775 5775 5776 5777 5777 5778 5779 5780 5781 5782 5782 5783 5784 5784 5784 5784 5784 5784 5784 5783 5783 5782 5781 5779 5778 5776 5774 5772 5770 5768 5765
5777 5777 5776 5776 5777 5777 5777 5777 5778 5778 5779 5779 5780 5780 5781 5782 5783 5783 5784 5784 5784 5784 5784 5784 5784 5784 5783 5783 5781 5780 5779 5777 5775 5773 5772 5769 5767 5765
5781 5781 5780 5780 5780 5780 5780 5780 5780 5780 5781 5781 5782 5782 5783 5783 5784 5784 5785 5785 5785 5785 5785 5784 5784 5783 5783 5782 5781 5780 5778 5776 5775 5773 5771 5769 5766 5763
5785 5784 5784 5783 5783 5783 5783 5783 5783 5783 5783 5783 5783 5784 5784 5784 5785 5785 5785 5785 5785 5785 5784 5784 5783 5783 5782 5781 5780 5778 5777 5775 5773 5771 5769 5767 5765 5762
5788 5787 5787 5786 5786 5785 5785 5785 5785 5785 5785 5785 5785 5785 5785 5785 5785 5785 5785 5785 5785 5784 5784 5783 5783 5782 5781 5780 5778 5777 5775 5774 5772 5770 5768 5766 5763 5760